| time (UTC) | temp C | wind direction | speed KPH | gust KPH | rain 1hr cm | rain 24hr cm | rain mn cm | humidity % | barometer mb |
| 20260507015128 | 2 | 304 | 0.0 | 0.0 | 0.00 | 0.00 | 0.00 | 75 | 1006.3 |
| 20260507014624 | 2 | 305 | 0.0 | 0.0 | 0.00 | 0.00 | 0.00 | 75 | 1006.2 |
| 20260507014120 | 2 | 304 | 0.0 | 0.0 | 0.00 | 0.00 | 0.00 | 73 | 1006.2 |
| 20260507013617 | 2 | 324 | 0.0 | 0.0 | 0.00 | 0.00 | 0.00 | 73 | 1006.3 |
| 20260507013114 | 2 | 273 | 0.0 | 0.0 | 0.00 | 0.00 | 0.00 | 71 | 1006.3 |
| 20260507012611 | 2 | 250 | 0.0 | 0.0 | 0.00 | 0.00 | 0.00 | 70 | 1006.5 |
| 20260507012107 | 2 | 253 | 0.0 | 0.0 | 0.00 | 0.00 | 0.00 | 71 | 1006.4 |
| 20260507011605 | 2 | 259 | 0.0 | 0.0 | 0.00 | 0.00 | 0.00 | 71 | 1006.3 |
| 20260507011101 | 2 | 331 | 0.0 | 0.0 | 0.00 | 0.00 | 0.00 | 72 | 1006.4 |
| 20260507010556 | 2 | 245 | 0.0 | 0.0 | 0.00 | 0.00 | 0.00 | 71 | 1006.6 |
| 20260507010053 | 2 | 240 | 0.0 | 0.0 | 0.00 | 0.00 | 0.00 | 72 | 1006.5 |
| 20260507005550 | 2 | 273 | 0.0 | 0.0 | 0.00 | 0.00 | 0.00 | 70 | 1006.4 |
| 20260507005046 | 2 | 265 | 0.0 | 0.0 | 0.00 | 0.00 | 0.00 | 71 | 1006.5 |
| 20260507004544 | 2 | 272 | 0.0 | 1.6 | 0.00 | 0.00 | 0.00 | 70 | 1006.4 |
| 20260507004041 | 2 | 256 | 0.0 | 0.0 | 0.00 | 0.00 | 0.00 | 71 | 1006.3 |
| 20260507003536 | 3 | 338 | 6.4 | 9.7 | 0.00 | 0.00 | 0.00 | 69 | 1006.5 |
| 20260507003026 | 3 | 257 | 0.0 | 1.6 | 0.00 | 0.00 | 0.00 | 70 | 1006.5 |
| 20260507002522 | 2 | 3 | 0.0 | 0.0 | 0.00 | 0.00 | 0.00 | 70 | 1006.6 |
| 20260507002019 | 2 | 345 | 1.6 | 1.6 | 0.00 | 0.00 | 0.00 | 68 | 1006.8 |
| 20260507001515 | 3 | 326 | 0.0 | 1.6 | 0.00 | 0.00 | 0.00 | 69 | 1006.8 |
| 20260507001013 | 3 | 207 | 1.6 | 1.6 | 0.00 | 0.00 | 0.00 | 70 | 1006.6 |
| 20260507000509 | 3 | 246 | 0.0 | 1.6 | 0.00 | 0.00 | 0.00 | 69 | 1006.6 |
| 20260507000005 | 3 | 271 | 0.0 | 0.0 | 0.00 | 0.00 | 0.00 | 70 | 1006.6 |
| 20260506235502 | 3 | 293 | 1.6 | 1.6 | 0.00 | 0.00 | 0.00 | 69 | 1006.7 |
| 20260506234958 | 3 | 286 | 1.6 | 1.6 | 0.00 | 0.00 | 0.00 | 68 | 1006.6 |
| 20260506234455 | 3 | 218 | 1.6 | 1.6 | 0.00 | 0.00 | 0.00 | 68 | 1006.6 |
| 20260506233953 | 3 | 287 | 3.2 | 4.8 | 0.00 | 0.00 | 0.00 | 66 | 1006.7 |
| 20260506233449 | 3 | 234 | 1.6 | 3.2 | 0.00 | 0.00 | 0.00 | 68 | 1006.7 |
| 20260506232945 | 3 | 245 | 1.6 | 3.2 | 0.00 | 0.00 | 0.00 | 66 | 1006.7 |
| 20260506232441 | 3 | 254 | 0.0 | 1.6 | 0.00 | 0.00 | 0.00 | 67 | 1006.8 |
| 20260506231932 | 3 | 268 | 3.2 | 3.2 | 0.00 | 0.00 | 0.00 | 67 | 1006.7 |
| 20260506231430 | 3 | 293 | 0.0 | 1.6 | 0.00 | 0.00 | 0.00 | 68 | 1007.0 |
| 20260506230926 | 3 | 292 | 1.6 | 3.2 | 0.00 | 0.00 | 0.00 | 66 | 1006.7 |
| 20260506230423 | 3 | 256 | 1.6 | 3.2 | 0.00 | 0.00 | 0.00 | 68 | 1006.8 |
| 20260506225919 | 3 | 324 | 1.6 | 1.6 | 0.00 | 0.00 | 0.00 | 68 | 1006.9 |
| 20260506225416 | 3 | 220 | 1.6 | 1.6 | 0.00 | 0.00 | 0.00 | 69 | 1006.9 |
| 20260506224908 | 3 | 333 | 1.6 | 3.2 | 0.00 | 0.00 | 0.00 | 69 | 1007.0 |
| 20260506224405 | 3 | 247 | 0.0 | 0.0 | 0.00 | 0.00 | 0.00 | 70 | 1007.1 |
| 20260506223901 | 3 | 210 | 3.2 | 4.8 | 0.00 | 0.00 | 0.00 | 66 | 1006.8 |
| 20260506223357 | 3 | 290 | 3.2 | 4.8 | 0.00 | 0.00 | 0.00 | 65 | 1006.8 |
| 20260506222854 | 3 | 272 | 0.0 | 0.0 | 0.00 | 0.00 | 0.00 | 67 | 1006.8 |
| 20260506222350 | 3 | 200 | 1.6 | 1.6 | 0.00 | 0.00 | 0.00 | 67 | 1006.8 |
| 20260506221848 | 3 | 274 | 0.0 | 1.6 | 0.00 | 0.00 | 0.00 | 67 | 1006.8 |
| 20260506221345 | 3 | 227 | 1.6 | 1.6 | 0.00 | 0.00 | 0.00 | 64 | 1006.9 |
| 20260506220842 | 4 | 247 | 1.6 | 3.2 | 0.00 | 0.00 | 0.00 | 63 | 1006.8 |
| 20260506220338 | 4 | 214 | 1.6 | 3.2 | 0.00 | 0.00 | 0.00 | 64 | 1006.7 |
| 20260506215834 | 3 | 285 | 1.6 | 3.2 | 0.00 | 0.00 | 0.00 | 65 | 1006.9 |
| 20260506215330 | 3 | 294 | 8.0 | 9.7 | 0.00 | 0.00 | 0.00 | 64 | 1006.8 |
| 20260506214821 | 3 | 307 | 3.2 | 4.8 | 0.00 | 0.00 | 0.00 | 63 | 1006.7 |
| 20260506214317 | 3 | 284 | 1.6 | 3.2 | 0.00 | 0.00 | 0.00 | 60 | 1006.9 |
| 20260506213816 | 4 | 179 | 1.6 | 1.6 | 0.00 | 0.00 | 0.00 | 62 | 1006.6 |
| 20260506213313 | 4 | 330 | 6.4 | 9.7 | 0.00 | 0.00 | 0.00 | 62 | 1006.8 |
| 20260506212810 | 4 | 297 | 1.6 | 1.6 | 0.00 | 0.00 | 0.00 | 64 | 1006.8 |
| 20260506212307 | 3 | 240 | 3.2 | 3.2 | 0.00 | 0.00 | 0.00 | 63 | 1006.6 |
| 20260506211800 | 3 | 189 | 1.6 | 1.6 | 0.00 | 0.00 | 0.00 | 63 | 1006.9 |
| 20260506211257 | 3 | 218 | 0.0 | 1.6 | 0.00 | 0.00 | 0.00 | 63 | 1006.9 |
| 20260506210754 | 3 | 253 | 3.2 | 4.8 | 0.00 | 0.00 | 0.00 | 62 | 1006.8 |
| 20260506210250 | 3 | 232 | 1.6 | 3.2 | 0.00 | 0.00 | 0.00 | 62 | 1006.9 |
| 20260506205748 | 3 | 249 | 1.6 | 3.2 | 0.00 | 0.00 | 0.00 | 62 | 1006.9 |
| 20260506205243 | 4 | 4 | 1.6 | 4.8 | 0.00 | 0.00 | 0.00 | 61 | 1006.7 |
| 20260506204740 | 4 | 215 | 3.2 | 4.8 | 0.00 | 0.00 | 0.00 | 61 | 1006.6 |
| 20260506204238 | 4 | 245 | 0.0 | 0.0 | 0.00 | 0.00 | 0.00 | 62 | 1006.9 |
| 20260506203736 | 3 | 252 | 3.2 | 4.8 | 0.00 | 0.00 | 0.00 | 61 | 1006.8 |
| 20260506203232 | 3 | 267 | 3.2 | 4.8 | 0.00 | 0.00 | 0.00 | 62 | 1006.9 |
| 20260506202730 | 4 | 284 | 0.0 | 1.6 | 0.00 | 0.00 | 0.00 | 62 | 1006.9 |
| 20260506202226 | 4 | 12 | 1.6 | 3.2 | 0.00 | 0.00 | 0.00 | 60 | 1006.8 |
| 20260506201723 | 4 | 261 | 1.6 | 1.6 | 0.00 | 0.00 | 0.00 | 62 | 1006.8 |
| 20260506201220 | 5 | 263 | 0.0 | 0.0 | 0.00 | 0.00 | 0.00 | 61 | 1006.9 |
| 20260506200717 | 4 | 127 | 1.6 | 1.6 | 0.00 | 0.00 | 0.00 | 61 | 1006.9 |
| 20260506200214 | 5 | 314 | 3.2 | 4.8 | 0.00 | 0.00 | 0.00 | 59 | 1006.7 |
| 20260506195710 | 4 | 249 | 0.0 | 0.0 | 0.00 | 0.00 | 0.00 | 61 | 1006.8 |
| 20260506195207 | 4 | 336 | 1.6 | 3.2 | 0.00 | 0.00 | 0.00 | 62 | 1006.9 |
| 20260506194659 | 4 | 6 | 3.2 | 3.2 | 0.00 | 0.00 | 0.00 | 60 | 1006.8 |
| 20260506194155 | 3 | 232 | 3.2 | 4.8 | 0.00 | 0.00 | 0.00 | 60 | 1006.9 |
| 20260506193653 | 4 | 249 | 1.6 | 1.6 | 0.00 | 0.00 | 0.00 | 60 | 1006.9 |
| 20260506193149 | 4 | 237 | 1.6 | 3.2 | 0.00 | 0.00 | 0.00 | 59 | 1006.8 |
| 20260506192645 | 4 | 234 | 0.0 | 0.0 | 0.00 | 0.00 | 0.00 | 60 | 1006.9 |
| 20260506192141 | 4 | 334 | 3.2 | 4.8 | 0.00 | 0.00 | 0.00 | 60 | 1006.9 |
| 20260506191634 | 4 | 263 | 1.6 | 3.2 | 0.00 | 0.00 | 0.00 | 60 | 1006.6 |
| 20260506191130 | 4 | 272 | 4.8 | 11.3 | 0.00 | 0.00 | 0.00 | 62 | 1006.8 |
| 20260506190627 | 4 | 320 | 3.2 | 3.2 | 0.00 | 0.00 | 0.00 | 60 | 1006.9 |
| 20260506190124 | 4 | 290 | 3.2 | 3.2 | 0.00 | 0.00 | 0.00 | 59 | 1006.7 |
| 20260506185621 | 4 | 200 | 1.6 | 1.6 | 0.00 | 0.00 | 0.00 | 61 | 1006.5 |
| 20260506185117 | 3 | 219 | 1.6 | 3.2 | 0.00 | 0.00 | 0.00 | 61 | 1006.7 |
| 20260506184614 | 3 | 197 | 4.8 | 6.4 | 0.00 | 0.00 | 0.00 | 61 | 1006.8 |
| 20260506184112 | 4 | 305 | 0.0 | 1.6 | 0.00 | 0.00 | 0.00 | 61 | 1006.8 |
| 20260506183608 | 4 | 323 | 4.8 | 6.4 | 0.00 | 0.00 | 0.00 | 60 | 1006.6 |
| 20260506183104 | 4 | 15 | 0.0 | 1.6 | 0.00 | 0.00 | 0.00 | 61 | 1006.9 |
| 20260506182602 | 3 | 230 | 3.2 | 3.2 | 0.00 | 0.00 | 0.00 | 60 | 1006.7 |
| 20260506182059 | 4 | 238 | 4.8 | 9.7 | 0.00 | 0.00 | 0.00 | 62 | 1006.7 |
| 20260506181556 | 4 | 296 | 0.0 | 1.6 | 0.00 | 0.00 | 0.00 | 60 | 1006.6 |
| 20260506181052 | 3 | 284 | 1.6 | 3.2 | 0.00 | 0.00 | 0.00 | 63 | 1006.7 |
| 20260506180544 | 3 | 283 | 0.0 | 1.6 | 0.00 | 0.00 | 0.00 | 60 | 1006.9 |
| 20260506180041 | 3 | 37 | 1.6 | 3.2 | 0.00 | 0.00 | 0.00 | 63 | 1006.9 |
| 20260506175537 | 3 | 297 | 8.0 | 11.3 | 0.00 | 0.00 | 0.00 | 62 | 1006.8 |
| 20260506175033 | 3 | 206 | 0.0 | 1.6 | 0.00 | 0.00 | 0.00 | 62 | 1006.9 |
| 20260506174532 | 3 | 296 | 1.6 | 1.6 | 0.00 | 0.00 | 0.00 | 63 | 1007.0 |
| 20260506174028 | 3 | 228 | 3.2 | 4.8 | 0.00 | 0.00 | 0.00 | 61 | 1006.9 |
| 20260506173526 | 3 | 207 | 0.0 | 1.6 | 0.00 | 0.00 | 0.00 | 62 | 1006.9 |
| 20260506173022 | 3 | 156 | 0.0 | 1.6 | 0.00 | 0.00 | 0.00 | 61 | 1006.9 |
| 20260506172519 | 3 | 276 | 1.6 | 3.2 | 0.00 | 0.00 | 0.00 | 62 | 1006.9 |
| 20260506172010 | 3 | 285 | 0.0 | 0.0 | 0.00 | 0.00 | 0.00 | 63 | 1006.9 |
| 20260506171507 | 3 | 333 | 9.7 | 11.3 | 0.00 | 0.00 | 0.00 | 62 | 1007.0 |
| 20260506171004 | 3 | 255 | 0.0 | 1.6 | 0.00 | 0.00 | 0.00 | 61 | 1006.9 |
| 20260506170501 | 3 | 279 | 1.6 | 3.2 | 0.00 | 0.00 | 0.00 | 62 | 1006.9 |
| 20260506165954 | 3 | 315 | 3.2 | 3.2 | 0.00 | 0.00 | 0.00 | 60 | 1006.9 |
| 20260506165453 | 3 | 236 | 3.2 | 4.8 | 0.00 | 0.00 | 0.00 | 61 | 1007.1 |
| 20260506164948 | 3 | 251 | 0.0 | 0.0 | 0.00 | 0.00 | 0.00 | 62 | 1006.9 |
| 20260506164445 | 3 | 347 | 8.0 | 11.3 | 0.00 | 0.00 | 0.00 | 63 | 1007.1 |
| 20260506163943 | 3 | 355 | 3.2 | 4.8 | 0.00 | 0.00 | 0.00 | 62 | 1007.0 |
| 20260506163438 | 3 | 245 | 4.8 | 9.7 | 0.00 | 0.00 | 0.00 | 62 | 1007.0 |
| 20260506162932 | 3 | 169 | 8.0 | 12.9 | 0.00 | 0.00 | 0.00 | 63 | 1007.0 |
| 20260506162430 | 3 | 274 | 0.0 | 0.0 | 0.00 | 0.00 | 0.00 | 64 | 1007.0 |
| 20260506161927 | 3 | 239 | 4.8 | 6.4 | 0.00 | 0.00 | 0.00 | 65 | 1006.8 |
| 20260506161425 | 3 | 17 | 6.4 | 12.9 | 0.00 | 0.00 | 0.00 | 64 | 1007.0 |
| 20260506160917 | 2 | 247 | 3.2 | 3.2 | 0.00 | 0.00 | 0.00 | 65 | 1006.9 |
| 20260506160414 | 2 | 258 | 1.6 | 1.6 | 0.00 | 0.00 | 0.00 | 64 | 1007.2 |
| 20260506155912 | 3 | 259 | 3.2 | 4.8 | 0.00 | 0.00 | 0.00 | 63 | 1006.9 |
| 20260506155408 | 3 | 276 | 1.6 | 1.6 | 0.00 | 0.00 | 0.00 | 65 | 1007.1 |
| 20260506153525 | 2 | 256 | 0.0 | 1.6 | 0.00 | 0.00 | 0.00 | 64 | 1006.9 |
| 20260506153022 | 2 | 295 | 4.8 | 6.4 | 0.00 | 0.00 | 0.00 | 65 | 1006.9 |
| 20260506152519 | 2 | 308 | 1.6 | 3.2 | 0.00 | 0.00 | 0.00 | 67 | 1006.7 |
| 20260506152017 | 2 | 0 | 4.8 | 9.7 | 0.00 | 0.00 | 0.00 | 66 | 1006.8 |
| 20260506151514 | 2 | 278 | 1.6 | 1.6 | 0.00 | 0.00 | 0.00 | 67 | 1007.0 |
| 20260506151012 | 2 | 284 | 3.2 | 6.4 | 0.00 | 0.00 | 0.00 | 66 | 1006.6 |
| 20260506150508 | 2 | 330 | 6.4 | 6.4 | 0.00 | 0.00 | 0.00 | 68 | 1006.9 |
| 20260506150005 | 2 | 199 | 1.6 | 1.6 | 0.00 | 0.00 | 0.00 | 68 | 1006.9 |
| 20260506145501 | 2 | 288 | 1.6 | 3.2 | 0.00 | 0.00 | 0.00 | 69 | 1006.7 |
| 20260506144959 | 2 | 225 | 3.2 | 4.8 | 0.00 | 0.00 | 0.00 | 67 | 1007.0 |
| 20260506144455 | 2 | 225 | 1.6 | 4.8 | 0.00 | 0.00 | 0.00 | 70 | 1007.0 |
| 20260506143953 | 1 | 344 | 3.2 | 3.2 | 0.00 | 0.00 | 0.00 | 70 | 1006.8 |
| 20260506143450 | 1 | 122 | 3.2 | 6.4 | 0.00 | 0.00 | 0.00 | 70 | 1007.1 |
| 20260506142949 | 1 | 217 | 3.2 | 3.2 | 0.00 | 0.00 | 0.00 | 73 | 1007.0 |
| 20260506142446 | 1 | 249 | 1.6 | 1.6 | 0.00 | 0.00 | 0.00 | 73 | 1006.9 |
| 20260506141944 | 1 | 242 | 1.6 | 3.2 | 0.00 | 0.00 | 0.00 | 73 | 1007.0 |
| 20260506141441 | 1 | 282 | 0.0 | 1.6 | 0.00 | 0.00 | 0.00 | 72 | 1006.8 |
| 20260506140940 | 1 | 169 | 1.6 | 3.2 | 0.00 | 0.00 | 0.00 | 74 | 1007.0 |
| 20260506140436 | 1 | 273 | 0.0 | 1.6 | 0.00 | 0.00 | 0.00 | 74 | 1006.8 |
| 20260506135933 | 1 | 271 | 1.6 | 1.6 | 0.00 | 0.00 | 0.00 | 75 | 1006.7 |
| 20260506135431 | 1 | 221 | 3.2 | 6.4 | 0.00 | 0.00 | 0.00 | 74 | 1006.8 |
| 20260506134927 | 1 | 205 | 6.4 | 6.4 | 0.00 | 0.00 | 0.00 | 74 | 1006.9 |
| 20260506134423 | 0 | 198 | 1.6 | 3.2 | 0.00 | 0.00 | 0.00 | 76 | 1006.8 |
| 20260506133920 | 0 | 335 | 0.0 | 1.6 | 0.00 | 0.00 | 0.00 | 76 | 1006.8 |
| 20260506133417 | 0 | 240 | 6.4 | 6.4 | 0.00 | 0.00 | 0.00 | 77 | 1006.8 |
| 20260506132913 | 0 | 239 | 0.0 | 0.0 | 0.00 | 0.00 | 0.00 | 77 | 1006.9 |
| 20260506132411 | 0 | 271 | 0.0 | 0.0 | 0.00 | 0.00 | 0.00 | 77 | 1006.9 |
| 20260506131908 | 0 | 265 | 0.0 | 0.0 | 0.00 | 0.00 | 0.00 | 78 | 1006.8 |
| 20260506131404 | 0 | 223 | 1.6 | 3.2 | 0.00 | 0.00 | 0.00 | 77 | 1006.7 |
| 20260506130902 | 0 | 272 | 0.0 | 0.0 | 0.00 | 0.00 | 0.00 | 78 | 1007.0 |
| 20260506130358 | 0 | 261 | 0.0 | 0.0 | 0.00 | 0.00 | 0.00 | 79 | 1006.7 |
| 20260506125856 | 0 | 189 | 0.0 | 0.0 | 0.00 | 0.00 | 0.00 | 79 | 1006.7 |
| 20260506125354 | 0 | 300 | 1.6 | 1.6 | 0.00 | 0.00 | 0.00 | 79 | 1006.7 |
| 20260506124852 | 0 | 326 | 1.6 | 3.2 | 0.00 | 0.00 | 0.00 | 79 | 1007.0 |
| 20260506124349 | 0 | 235 | 1.6 | 1.6 | 0.00 | 0.00 | 0.00 | 79 | 1006.6 |
| 20260506123847 | 0 | 335 | 0.0 | 0.0 | 0.00 | 0.00 | 0.00 | 79 | 1006.7 |
| 20260506123345 | 0 | 215 | 0.0 | 0.0 | 0.00 | 0.00 | 0.00 | 79 | 1006.4 |
| 20260506122842 | 0 | 271 | 0.0 | 0.0 | 0.00 | 0.00 | 0.00 | 79 | 1006.6 |
| 20260506122338 | 0 | 237 | 3.2 | 3.2 | 0.00 | 0.00 | 0.00 | 79 | 1006.5 |
| 20260506121837 | 0 | 325 | 0.0 | 1.6 | 0.00 | 0.00 | 0.00 | 79 | 1006.4 |
| 20260506121333 | 0 | 259 | 0.0 | 1.6 | 0.00 | 0.00 | 0.00 | 79 | 1006.4 |
| 20260506120831 | 0 | 269 | 1.6 | 3.2 | 0.00 | 0.00 | 0.00 | 79 | 1006.3 |
| 20260506120328 | 0 | 259 | 0.0 | 0.0 | 0.00 | 0.00 | 0.00 | 79 | 1006.3 |
| 20260506115825 | 0 | 209 | 0.0 | 0.0 | 0.00 | 0.00 | 0.00 | 78 | 1006.3 |
| 20260506115324 | 0 | 251 | 1.6 | 3.2 | 0.00 | 0.00 | 0.00 | 79 | 1006.3 |
| 20260506114821 | 0 | 344 | 0.0 | 0.0 | 0.00 | 0.00 | 0.00 | 79 | 1006.1 |
| 20260506114319 | 0 | 296 | 0.0 | 0.0 | 0.00 | 0.00 | 0.00 | 79 | 1006.2 |
| 20260506113817 | 0 | 281 | 0.0 | 1.6 | 0.00 | 0.00 | 0.00 | 79 | 1006.0 |
| 20260506113314 | 0 | 243 | 0.0 | 1.6 | 0.00 | 0.00 | 0.00 | 79 | 1006.1 |
| 20260506112811 | 0 | 176 | 0.0 | 0.0 | 0.00 | 0.00 | 0.00 | 79 | 1006.0 |
| 20260506112308 | 0 | 241 | 1.6 | 3.2 | 0.00 | 0.00 | 0.00 | 78 | 1006.1 |
| 20260506111806 | 0 | 301 | 0.0 | 1.6 | 0.00 | 0.00 | 0.00 | 79 | 1006.0 |
| 20260506111304 | 0 | 239 | 3.2 | 3.2 | 0.00 | 0.00 | 0.00 | 78 | 1005.9 |
| 20260506110801 | 0 | 331 | 1.6 | 3.2 | 0.00 | 0.00 | 0.00 | 78 | 1005.8 |
| 20260506110258 | 0 | 280 | 0.0 | 1.6 | 0.00 | 0.00 | 0.00 | 78 | 1006.0 |
| 20260506105754 | 0 | 214 | 0.0 | 1.6 | 0.00 | 0.00 | 0.00 | 78 | 1005.9 |
| 20260506105251 | 0 | 226 | 0.0 | 1.6 | 0.00 | 0.00 | 0.00 | 77 | 1005.9 |
| 20260506104749 | 0 | 294 | 0.0 | 0.0 | 0.00 | 0.00 | 0.00 | 79 | 1005.8 |
| 20260506104246 | 0 | 334 | 6.4 | 11.3 | 0.00 | 0.00 | 0.00 | 79 | 1005.7 |
| 20260506103744 | 0 | 221 | 3.2 | 3.2 | 0.00 | 0.00 | 0.00 | 78 | 1005.7 |
| 20260506103241 | 0 | 230 | 3.2 | 3.2 | 0.00 | 0.00 | 0.00 | 78 | 1005.8 |
| 20260506102738 | 0 | 280 | 0.0 | 0.0 | 0.00 | 0.00 | 0.00 | 79 | 1005.8 |
| 20260506102236 | 0 | 277 | 1.6 | 1.6 | 0.00 | 0.00 | 0.00 | 79 | 1005.7 |
| 20260506101733 | -1 | 281 | 0.0 | 0.0 | 0.00 | 0.00 | 0.00 | 80 | 1005.7 |
| 20260506101229 | -1 | 292 | 0.0 | 0.0 | 0.00 | 0.00 | 0.00 | 79 | 1005.7 |
| 20260506100727 | -1 | 271 | 0.0 | 0.0 | 0.00 | 0.00 | 0.00 | 79 | 1006.0 |
| 20260506100225 | -1 | 233 | 0.0 | 0.0 | 0.00 | 0.00 | 0.00 | 79 | 1005.7 |
| 20260506095724 | -1 | 281 | 0.0 | 0.0 | 0.00 | 0.00 | 0.00 | 80 | 1005.9 |
| 20260506095220 | -1 | 292 | 0.0 | 0.0 | 0.00 | 0.00 | 0.00 | 79 | 1005.7 |
| 20260506094717 | -1 | 299 | 0.0 | 0.0 | 0.00 | 0.00 | 0.00 | 80 | 1005.7 |
| 20260506094215 | -1 | 298 | 0.0 | 0.0 | 0.00 | 0.00 | 0.00 | 80 | 1005.9 |
| 20260506093714 | -1 | 312 | 0.0 | 0.0 | 0.00 | 0.00 | 0.00 | 80 | 1005.9 |
| 20260506093210 | -1 | 313 | 0.0 | 0.0 | 0.00 | 0.00 | 0.00 | 80 | 1005.8 |
| 20260506092708 | -1 | 261 | 0.0 | 0.0 | 0.00 | 0.00 | 0.00 | 79 | 1005.8 |
| 20260506092205 | -1 | 284 | 0.0 | 0.0 | 0.00 | 0.00 | 0.00 | 79 | 1005.8 |
| 20260506091703 | -1 | 269 | 0.0 | 0.0 | 0.00 | 0.00 | 0.00 | 79 | 1005.8 |
| 20260506091200 | -1 | 268 | 0.0 | 0.0 | 0.00 | 0.00 | 0.00 | 80 | 1005.8 |
| 20260506090658 | -1 | 288 | 0.0 | 0.0 | 0.00 | 0.00 | 0.00 | 78 | 1005.8 |
| 20260506090154 | -1 | 286 | 0.0 | 0.0 | 0.00 | 0.00 | 0.00 | 80 | 1005.9 |
| 20260506085651 | -1 | 270 | 0.0 | 0.0 | 0.00 | 0.00 | 0.00 | 78 | 1005.8 |
| 20260506085147 | -1 | 267 | 1.6 | 3.2 | 0.00 | 0.00 | 0.00 | 78 | 1005.9 |
| 20260506084644 | -1 | 331 | 1.6 | 3.2 | 0.00 | 0.00 | 0.00 | 79 | 1005.8 |
| 20260506084141 | -1 | 300 | 0.0 | 0.0 | 0.00 | 0.00 | 0.00 | 79 | 1005.9 |
| 20260506083638 | -1 | 285 | 0.0 | 0.0 | 0.00 | 0.00 | 0.00 | 80 | 1005.8 |
| 20260506083136 | -1 | 326 | 0.0 | 1.6 | 0.00 | 0.00 | 0.00 | 80 | 1005.9 |
| 20260506082632 | -1 | 304 | 0.0 | 0.0 | 0.00 | 0.00 | 0.00 | 80 | 1006.0 |
| 20260506082128 | -1 | 264 | 0.0 | 0.0 | 0.00 | 0.00 | 0.00 | 80 | 1005.6 |
| 20260506081626 | -1 | 341 | 1.6 | 1.6 | 0.00 | 0.00 | 0.00 | 79 | 1005.9 |
| 20260506081123 | -1 | 270 | 0.0 | 1.6 | 0.00 | 0.00 | 0.00 | 81 | 1005.7 |
| 20260506080621 | -1 | 272 | 0.0 | 0.0 | 0.00 | 0.00 | 0.00 | 81 | 1006.0 |
| 20260506080117 | -1 | 269 | 0.0 | 0.0 | 0.00 | 0.00 | 0.00 | 81 | 1005.8 |
| 20260506073101 | -1 | 256 | 0.0 | 0.0 | 0.00 | 0.00 | 0.00 | 80 | 1005.8 |
| 20260506072558 | -1 | 297 | 0.0 | 1.6 | 0.00 | 0.00 | 0.00 | 78 | 1006.0 |
| 20260506072056 | -1 | 357 | 1.6 | 1.6 | 0.00 | 0.00 | 0.00 | 78 | 1005.9 |
| 20260506071553 | -1 | 265 | 1.6 | 3.2 | 0.00 | 0.00 | 0.00 | 79 | 1005.8 |
| 20260506071051 | -1 | 263 | 0.0 | 1.6 | 0.00 | 0.00 | 0.00 | 78 | 1005.9 |
| 20260506070548 | -1 | 304 | 0.0 | 0.0 | 0.00 | 0.00 | 0.00 | 77 | 1006.0 |
| 20260506062022 | -1 | 268 | 0.0 | 0.0 | 0.00 | 0.00 | 0.00 | 76 | 1005.8 |
| 20260506061517 | -1 | 262 | 0.0 | 1.6 | 0.00 | 0.00 | 0.00 | 77 | 1006.0 |
| 20260506061015 | -1 | 359 | 0.0 | 1.6 | 0.00 | 0.00 | 0.00 | 77 | 1006.0 |
| 20260506060514 | -1 | 287 | 1.6 | 1.6 | 0.00 | 0.00 | 0.00 | 76 | 1006.0 |
| 20260506050943 | 0 | 288 | 1.6 | 3.2 | 0.00 | 0.00 | 0.00 | 76 | 1005.9 |
| 20260506050440 | 0 | 249 | 0.0 | 1.6 | 0.00 | 0.00 | 0.00 | 76 | 1005.8 |
| 20260506044930 | 0 | 241 | 4.8 | 4.8 | 0.00 | 0.00 | 0.00 | 74 | 1006.0 |
| 20260506044429 | 0 | 71 | 0.0 | 0.0 | 0.00 | 0.00 | 0.00 | 75 | 1005.8 |
| 20260506043925 | 0 | 205 | 1.6 | 3.2 | 0.00 | 0.00 | 0.00 | 75 | 1005.9 |
| 20260506043423 | 0 | 224 | 0.0 | 0.0 | 0.00 | 0.00 | 0.00 | 74 | 1005.9 |
| 20260506042920 | 1 | 212 | 4.8 | 6.4 | 0.00 | 0.00 | 0.00 | 74 | 1005.9 |
| 20260506042420 | 1 | 294 | 0.0 | 1.6 | 0.00 | 0.00 | 0.00 | 74 | 1005.8 |
| 20260506041917 | 1 | 236 | 1.6 | 3.2 | 0.00 | 0.00 | 0.00 | 73 | 1005.6 |
| 20260506041415 | 1 | 224 | 0.0 | 1.6 | 0.00 | 0.00 | 0.00 | 72 | 1005.8 |
| 20260506040912 | 1 | 334 | 3.2 | 4.8 | 0.00 | 0.00 | 0.00 | 71 | 1005.8 |
| 20260506040409 | 1 | 282 | 1.6 | 1.6 | 0.00 | 0.00 | 0.00 | 71 | 1005.7 |
| 20260506035905 | 1 | 288 | 0.0 | 0.0 | 0.00 | 0.00 | 0.00 | 71 | 1005.8 |
| 20260506035403 | 1 | 288 | 1.6 | 3.2 | 0.00 | 0.00 | 0.00 | 69 | 1005.9 |
| 20260506034859 | 1 | 301 | 0.0 | 0.0 | 0.00 | 0.00 | 0.00 | 69 | 1005.9 |
| 20260506034358 | 1 | 199 | 0.0 | 1.6 | 0.00 | 0.00 | 0.00 | 68 | 1005.8 |
| 20260506033854 | 1 | 256 | 0.0 | 1.6 | 0.00 | 0.00 | 0.00 | 68 | 1005.6 |
| 20260506033351 | 1 | 289 | 0.0 | 1.6 | 0.00 | 0.00 | 0.00 | 68 | 1005.6 |
| 20260506032848 | 1 | 190 | 0.0 | 0.0 | 0.00 | 0.00 | 0.00 | 68 | 1005.7 |
| 20260506032344 | 1 | 333 | 0.0 | 1.6 | 0.00 | 0.00 | 0.00 | 68 | 1005.6 |
| 20260506031841 | 1 | 274 | 0.0 | 0.0 | 0.00 | 0.00 | 0.00 | 68 | 1005.7 |
| 20260506031339 | 1 | 295 | 0.0 | 1.6 | 0.00 | 0.00 | 0.00 | 67 | 1005.6 |
| 20260506030836 | 1 | 228 | 1.6 | 3.2 | 0.00 | 0.00 | 0.00 | 66 | 1005.6 |
| 20260506030334 | 1 | 6 | 3.2 | 6.4 | 0.00 | 0.00 | 0.00 | 66 | 1005.6 |
| 20260506025831 | 1 | 340 | 3.2 | 6.4 | 0.00 | 0.00 | 0.00 | 66 | 1005.7 |
| 20260506025327 | 1 | 258 | 4.8 | 9.7 | 0.00 | 0.00 | 0.00 | 66 | 1005.6 |
| 20260506024824 | 1 | 310 | 4.8 | 6.4 | 0.00 | 0.00 | 0.00 | 66 | 1005.6 |
| 20260506024321 | 1 | 258 | 3.2 | 3.2 | 0.00 | 0.00 | 0.00 | 65 | 1005.5 |
| 20260506023817 | 1 | 317 | 0.0 | 1.6 | 0.00 | 0.00 | 0.00 | 66 | 1005.5 |
| 20260506023314 | 1 | 297 | 0.0 | 1.6 | 0.00 | 0.00 | 0.00 | 65 | 1005.6 |
| 20260506022811 | 1 | 315 | 1.6 | 3.2 | 0.00 | 0.00 | 0.00 | 66 | 1005.5 |
| 20260506022309 | 1 | 321 | 1.6 | 4.8 | 0.00 | 0.00 | 0.00 | 67 | 1005.3 |
| 20260506021807 | 1 | 221 | 0.0 | 1.6 | 0.00 | 0.00 | 0.00 | 66 | 1005.5 |
| 20260506021303 | 1 | 298 | 1.6 | 3.2 | 0.00 | 0.00 | 0.00 | 66 | 1005.4 |
| 20260506020800 | 1 | 10 | 0.0 | 0.0 | 0.00 | 0.00 | 0.00 | 67 | 1005.4 |
| 20260506020258 | 1 | 308 | 0.0 | 0.0 | 0.00 | 0.00 | 0.00 | 67 | 1005.2 |
| 20260506015755 | 1 | 298 | 1.6 | 1.6 | 0.00 | 0.00 | 0.00 | 66 | 1005.2 |